GW0207 Weather Reports


Display with metric or nautical units.
time (UTC)temp
F
wind
direction
speed
MPH
gust
MPH
rain 1hr
in
rain 24hr
in
rain mn
in
humidity
%
barometer
mb
20260904115602 77 27 0.0 1.0 0.00 0.00 0.00 93 1015.4
20260904115101 77 47 0.0 1.0 0.00 0.00 0.00 93 1015.4
20260904114601 77 347 0.0 0.0 0.00 0.00 0.00 93 1015.4
20260904114100 77 346 0.0 0.0 0.00 0.00 0.00 93 1015.4
20260904113602 77 339 0.0 0.0 0.00 0.00 0.00 93 1015.4
20260904113313 77 339 0.0 0.0 0.00 0.00 0.00 93 1015.4
20260904113301 77 339 0.0 0.0 0.00 0.00 0.00 93 1015.3
20260904112103 77 339 0.0 0.0 0.00 0.00 0.00 93 1015.3
20260904111605 77 325 0.0 0.0 0.00 0.00 0.00 93 1015.3
20260904111103 77 325 0.0 0.0 0.00 0.00 0.00 93 1015.2
20260904110603 77 48 0.0 0.0 0.00 0.00 0.00 93 1015.2
20260904105603 77 48 0.0 1.0 0.00 0.00 0.00 92 1015.2
20260904105102 77 48 0.0 1.0 0.00 0.00 0.00 92 1015.2
20260904104603 77 48 0.0 0.0 0.00 0.00 0.00 92 1015.2
20260904104104 77 48 0.0 1.0 0.00 0.00 0.00 92 1015.2
20260904103605 77 50 0.0 1.0 0.00 0.00 0.00 92 1015.2
20260904103103 77 33 0.0 1.0 0.00 0.00 0.00 92 1015.2
20260904102605 77 33 0.0 1.0 0.00 0.00 0.00 91 1015.2
20260904102103 77 33 0.0 1.0 0.00 0.00 0.00 91 1015.2
20260904101603 77 33 0.0 1.0 0.00 0.00 0.00 91 1015.2
20260904101103 77 33 0.0 1.0 0.00 0.00 0.00 91 1015.1
20260904100604 77 35 0.0 1.0 0.00 0.00 0.00 91 1015.1
20260904095603 77 35 0.0 0.0 0.00 0.00 0.00 91 1015.1
20260904095104 77 34 0.0 0.0 0.00 0.00 0.00 91 1015.1
20260904094604 77 34 0.0 0.0 0.00 0.00 0.00 90 1015.1
20260904094103 77 34 0.0 1.0 0.00 0.00 0.00 91 1015.1
20260904093604 77 34 0.0 1.0 0.00 0.00 0.00 90 1015.1
20260904093101 77 33 0.0 0.0 0.00 0.00 0.00 90 1015.1
20260904092601 77 34 0.0 1.0 0.00 0.00 0.00 90 1015.1
20260904092101 78 34 0.0 1.0 0.00 0.00 0.00 90 1015.0
20260904091602 78 34 0.0 1.0 0.00 0.00 0.00 90 1014.9
20260904091101 77 33 0.0 1.0 0.00 0.00 0.00 90 1014.9
20260904090600 77 41 0.0 0.0 0.00 0.00 0.00 90 1014.9
20260904090101 78 41 0.0 0.0 0.00 0.00 0.00 89 1014.8
20260904085823 78 41 0.0 0.0 0.00 0.00 0.00 89 1014.8
20260904085100 78 41 0.0 0.0 0.00 0.00 0.00 88 1014.8
20260904084601 78 41 0.0 0.0 0.00 0.00 0.00 88 1014.8
20260904084101 78 41 0.0 1.0 0.00 0.00 0.00 88 1014.7
20260904083601 79 41 0.0 1.0 0.00 0.00 0.00 87 1014.7
20260904083101 79 41 0.0 1.0 0.00 0.00 0.00 87 1014.6
20260904082600 79 41 0.0 1.0 0.00 0.00 0.00 87 1014.5
20260904082100 79 41 0.0 1.0 0.00 0.00 0.00 87 1014.5
20260904081603 79 41 0.0 1.0 0.00 0.00 0.00 87 1014.6
20260904081103 79 41 0.0 1.0 0.00 0.00 0.00 86 1014.6
20260904080814 79 41 0.0 1.0 0.00 0.00 0.00 86 1014.7
20260904080048 79 41 0.0 1.0 0.00 0.00 0.00 86 1014.7
20260904075808 79 41 0.0 1.0 0.00 0.00 0.00 86 1014.6
20260904075044 79 41 0.0 1.0 0.00 0.00 0.00 86 1014.6
20260904074541 79 41 0.0 1.0 0.00 0.00 0.00 85 1014.5
20260904074041 79 41 0.0 1.0 0.00 0.00 0.00 85 1014.5
20260904073541 79 41 0.0 1.0 0.00 0.00 0.00 85 1014.5
20260904073039 80 41 0.0 1.0 0.00 0.00 0.00 85 1014.5
20260904072539 80 41 0.0 2.0 0.00 0.00 0.00 84 1014.5
20260904072039 80 41 0.0 2.0 0.00 0.00 0.00 84 1014.5
20260904071538 80 32 0.0 2.0 0.00 0.00 0.00 84 1014.5
20260904071306 80 38 0.0 2.0 0.00 0.00 0.00 84 1014.6
20260904070537 80 49 0.0 1.0 0.00 0.00 0.00 84 1014.5
20260904070035 80 55 0.0 1.0 0.00 0.00 0.00 84 1014.6
20260904065533 80 55 0.0 1.0 0.00 0.00 0.00 84 1014.7
20260904065033 80 36 0.0 1.0 0.00 0.00 0.00 83 1014.8
20260904064753 80 34 0.0 1.0 0.00 0.00 0.00 83 1014.7
20260904064033 80 34 0.0 1.0 0.00 0.00 0.00 83 1014.8
20260904063532 80 34 0.0 1.0 0.00 0.00 0.00 83 1014.9
20260904063031 80 48 0.0 1.0 0.00 0.00 0.00 83 1015.0
20260904062531 80 48 0.0 1.0 0.00 0.00 0.00 83 1015.1
20260904062031 80 53 0.0 2.0 0.00 0.00 0.00 82 1015.2
20260904061531 80 36 0.0 2.0 0.00 0.00 0.00 82 1015.3
20260904061252 80 43 0.0 1.0 0.00 0.00 0.00 83 1015.4
20260904060529 80 49 0.0 1.0 0.00 0.00 0.00 83 1015.4
20260904060029 81 32 0.0 1.0 0.00 0.00 0.00 83 1015.5
20260904055528 81 32 0.0 1.0 0.00 0.00 0.00 82 1015.5
20260904055515 81 25 0.0 1.0 0.00 0.00 0.00 83 1015.5
20260904054529 80 25 0.0 1.0 0.00 0.00 0.00 83 1015.7
20260904054249 81 25 0.0 1.0 0.00 0.00 0.00 83 1015.7
20260904053528 81 25 0.0 1.0 0.00 0.00 0.00 82 1015.8
20260904053028 81 25 0.0 0.0 0.00 0.00 0.00 82 1015.9
20260904052745 82 25 0.0 1.0 0.00 0.00 0.00 81 1015.8
20260904052029 82 25 0.0 1.0 0.00 0.00 0.00 81 1015.9
20260904051753 82 25 0.0 1.0 0.00 0.00 0.00 80 1015.9
20260904051029 82 25 0.0 1.0 0.00 0.00 0.00 80 1015.9
20260904050528 82 24 0.0 1.0 0.00 0.00 0.00 80 1015.9
20260904050029 82 24 0.0 2.0 0.00 0.00 0.00 80 1015.9
20260904045529 82 11 0.0 2.0 0.00 0.00 0.00 80 1015.9
20260904045030 82 47 0.0 1.0 0.00 0.00 0.00 80 1015.9
20260904044529 83 31 0.0 1.0 0.00 0.00 0.00 80 1015.8
20260904044516 83 31 0.0 2.0 0.00 0.00 0.00 80 1015.8
20260904043529 83 15 0.0 2.0 0.00 0.00 0.00 80 1015.8
20260904043029 83 54 0.0 2.0 0.00 0.00 0.00 80 1015.8
20260904042529 83 56 0.0 2.0 0.00 0.00 0.00 81 1015.9
20260904042029 83 52 0.0 1.0 0.00 0.00 0.00 81 1015.8
20260904041529 83 52 0.0 0.0 0.00 0.00 0.00 82 1015.8
20260904041030 83 52 0.0 2.0 0.00 0.00 0.00 83 1015.7
20260904040529 83 54 0.0 2.0 0.00 0.00 0.00 83 1015.7
20260904040029 83 114 0.0 1.0 0.00 0.00 0.00 83 1015.6
20260904035529 83 114 0.0 1.0 0.00 0.00 0.00 83 1015.5
20260904035031 83 124 0.0 1.0 0.00 0.00 0.00 83 1015.4
20260904034530 83 74 0.0 1.0 0.00 0.00 0.00 83 1015.4
20260904034029 83 74 0.0 1.0 0.00 0.00 0.00 83 1015.5
20260904033529 83 243 0.0 1.0 0.00 0.00 0.00 83 1015.5
20260904033028 83 99 0.0 1.0 0.00 0.00 0.00 83 1015.5
20260904032529 82 27 0.0 1.0 0.00 0.00 0.00 83 1015.5
20260904032029 82 27 0.0 1.0 0.00 0.00 0.00 84 1015.6
20260904031528 82 221 0.0 1.0 0.00 0.00 0.00 83 1015.6
20260904031029 82 191 0.0 1.0 0.00 0.00 0.00 84 1015.6
20260904030752 82 70 0.0 0.0 0.00 0.00 0.00 83 1015.6
20260904030030 82 69 0.0 0.0 0.00 0.00 0.00 83 1015.7
20260904025529 83 70 0.0 0.0 0.00 0.00 0.00 83 1015.7
20260904025031 83 70 0.0 0.0 0.00 0.00 0.00 83 1015.7
20260904024528 83 70 0.0 0.0 0.00 0.00 0.00 82 1015.8
20260904024029 83 70 0.0 0.0 0.00 0.00 0.00 82 1015.8
20260904023531 83 69 0.0 0.0 0.00 0.00 0.00 82 1015.8
20260904023030 83 70 0.0 0.0 0.00 0.00 0.00 81 1015.8
20260904022529 83 70 0.0 0.0 0.00 0.00 0.00 81 1015.9
20260904022029 83 70 0.0 0.0 0.00 0.00 0.00 80 1015.9
20260904021529 84 70 0.0 0.0 0.00 0.00 0.00 80 1015.8
20260904021030 84 70 0.0 0.0 0.00 0.00 0.00 80 1015.8
20260904020529 84 70 0.0 0.0 0.00 0.00 0.00 79 1015.8
20260904020029 84 69 0.0 0.0 0.00 0.00 0.00 79 1015.9
20260904015748 84 70 0.0 0.0 0.00 0.00 0.00 78 1015.8
20260904015249 85 70 0.0 0.0 0.00 0.00 0.00 78 1015.8
20260904014529 85 69 0.0 1.0 0.00 0.00 0.00 78 1015.7
20260904014029 85 70 0.0 1.0 0.00 0.00 0.00 77 1015.7
20260904013531 85 69 0.0 0.0 0.00 0.00 0.00 77 1015.6
20260904013028 85 70 0.0 0.0 0.00 0.00 0.00 77 1015.6
20260904012530 85 70 0.0 0.0 0.00 0.00 0.00 77 1015.5
20260904012029 85 69 0.0 1.0 0.00 0.00 0.00 77 1015.5
20260904011529 86 69 0.0 1.0 0.00 0.00 0.00 76 1015.2
20260904011029 86 70 0.0 0.0 0.00 0.00 0.00 76 1015.2
20260904010528 86 70 0.0 0.0 0.00 0.00 0.00 75 1015.2
20260904010030 87 69 0.0 0.0 0.00 0.00 0.00 75 1015.1
20260904005529 87 70 0.0 1.0 0.00 0.00 0.00 74 1015.0
20260904005029 87 70 0.0 1.0 0.00 0.00 0.00 73 1014.9
20260904004528 87 70 0.0 1.0 0.00 0.00 0.00 74 1014.8
20260904004029 87 71 0.0 1.0 0.00 0.00 0.00 73 1014.7
20260904003529 87 80 0.0 1.0 0.00 0.00 0.00 74 1014.6
20260904003030 87 76 0.0 1.0 0.00 0.01 0.00 73 1014.5
20260904002752 87 29 0.0 1.0 0.00 0.05 0.00 73 1014.4
20260904002029 87 29 0.0 1.0 0.00 0.10 0.00 73 1014.3
20260904001530 88 29 0.0 1.0 0.00 0.13 0.00 73 1014.2
20260904001255 88 29 0.0 0.0 0.00 0.14 0.00 73 1014.2
20260904000529 88 29 0.0 1.0 0.00 0.19 0.00 71 1014.2
20260904000030 89 29 0.0 1.0 0.00 0.19 0.00 71 1014.2
20260903235750 89 29 0.0 0.0 0.00 0.19 0.00 70 1014.1
20260903235029 89 29 0.0 0.0 0.00 0.19 0.00 70 1013.9
20260903234531 89 291 0.0 0.0 0.00 0.19 0.00 70 1013.8
20260903234029 90 292 0.0 0.0 0.00 0.19 0.00 69 1013.8
20260903233529 90 291 0.0 0.0 0.00 0.19 0.00 68 1013.9
20260903233250 91 292 0.0 1.0 0.00 0.19 0.00 68 1013.8
20260903232529 91 291 0.0 1.0 0.00 0.19 0.00 66 1013.9
20260903232029 92 313 0.0 2.0 0.00 0.19 0.00 66 1013.9
20260903231529 92 313 0.0 2.0 0.00 0.19 0.00 65 1013.8
20260903231030 92 90 0.0 2.0 0.00 0.19 0.00 64 1013.9
20260903230528 93 90 0.0 2.0 0.00 0.19 0.00 63 1013.9
20260903230030 93 194 0.0 2.0 0.00 0.19 0.00 63 1013.9
20260903225529 93 121 0.0 2.0 0.00 0.19 0.00 62 1013.8
20260903225029 94 289 0.0 2.0 0.00 0.19 0.00 61 1013.8
20260903224528 94 86 0.0 2.0 0.00 0.19 0.00 60 1013.8
20260903224028 94 81 0.0 2.0 0.00 0.19 0.00 60 1013.9
20260903223530 94 50 1.0 2.0 0.00 0.19 0.00 60 1013.8
20260903223029 95 31 1.0 4.0 0.00 0.19 0.00 58 1013.8
20260903222529 95 221 0.0 4.0 0.00 0.19 0.00 58 1013.9
20260903222028 95 292 0.0 2.0 0.00 0.19 0.00 59 1013.8
20260903221529 95 223 0.0 2.0 0.00 0.19 0.00 57 1013.7
20260903221029 95 228 0.0 3.0 0.00 0.19 0.00 57 1013.7
20260903220528 95 78 1.0 5.0 0.00 0.19 0.00 57 1013.7
20260903220029 95 225 1.0 5.0 0.00 0.19 0.00 57 1013.7
20260903215747 95 200 0.0 4.0 0.00 0.19 0.00 57 1013.8
20260903215029 94 165 0.0 3.0 0.00 0.19 0.00 59 1013.8
20260903214529 94 206 0.0 1.0 0.00 0.19 0.00 64 1013.8
20260903214254 93 242 0.0 1.0 0.00 0.19 0.00 64 1013.9
20260903214009 93 223 0.0 2.0 0.00 0.19 0.00 63 1013.8
20260903213029 93 234 0.0 2.0 0.00 0.19 0.00 63 1013.8
20260903212529 93 258 0.0 2.0 0.00 0.19 0.00 63 1013.9
20260903212029 94 246 0.0 3.0 0.00 0.19 0.00 62 1013.9
20260903211529 94 249 0.0 3.0 0.00 0.19 0.00 62 1013.9
20260903211029 94 275 0.0 2.0 0.00 0.19 0.00 65 1014.0
20260903210751 93 271 0.0 3.0 0.00 0.19 0.00 63 1013.9
20260903210031 93 223 0.0 3.0 0.00 0.19 0.00 64 1014.0
20260903205532 94 220 0.0 2.0 0.00 0.19 0.00 63 1014.0
20260903205032 94 246 0.0 1.0 0.00 0.19 0.00 64 1014.1
20260903204531 95 247 0.0 2.0 0.00 0.19 0.00 61 1014.1
20260903204031 95 223 0.0 2.0 0.00 0.19 0.00 61 1014.1
20260903203750 96 244 0.0 4.0 0.00 0.19 0.00 59 1014.0
20260903203253 97 248 0.0 4.0 0.00 0.19 0.00 57 1014.2
20260903202756 97 244 0.0 4.0 0.00 0.19 0.00 57 1014.2
20260903202031 97 19 0.0 3.0 0.00 0.19 0.00 59 1014.3
20260903201748 97 238 0.0 3.0 0.00 0.19 0.00 57 1014.3
20260903201031 97 223 0.0 2.0 0.00 0.19 0.00 56 1014.4
20260903200531 97 90 0.0 6.0 0.00 0.19 0.00 55 1014.4
20260903200254 98 33 0.0 6.0 0.00 0.19 0.00 55 1014.5
20260903195531 98 55 1.0 4.0 0.00 0.19 0.00 54 1014.5
20260903195517 98 97 1.0 4.0 0.00 0.19 0.00 54 1014.5
20260903194531 98 221 0.0 3.0 0.00 0.19 0.00 54 1014.6
20260903194032 98 263 0.0 4.0 0.00 0.19 0.00 54 1014.7
20260903193531 98 218 1.0 4.0 0.00 0.19 0.00 55 1014.7
20260903193255 98 221 1.0 4.0 0.00 0.19 0.00 54 1014.7
20260903193015 98 105 1.0 7.0 0.00 0.19 0.00 55 1014.8
20260903192031 98 195 1.0 7.0 0.00 0.19 0.00 54 1014.9
20260903191758 98 228 1.0 5.0 0.00 0.19 0.00 54 1014.9
20260903191022 98 207 1.0 4.0 0.00 0.19 0.00 54 1014.9
20260903190517 99 231 1.0 4.0 0.00 0.19 0.00 55 1015.0
20260903190011 99 287 1.0 2.0 0.00 0.19 0.00 54 1015.0
20260903185505 98 274 1.0 4.0 0.00 0.19 0.00 55 1015.1
20260903185005 98 358 1.0 4.0 0.00 0.19 0.00 57 1015.2
20260903184503 99 260 0.0 4.0 0.00 0.19 0.00 55 1015.3
20260903184003 98 75 0.0 2.0 0.00 0.19 0.00 55 1015.3
20260903183504 98 234 0.0 1.0 0.00 0.19 0.00 55 1015.3
20260903183001 98 18 0.0 1.0 0.00 0.19 0.00 55 1015.3
20260903182502 98 4 0.0 1.0 0.00 0.19 0.00 53 1015.4
20260903182226 98 319 0.0 1.0 0.00 0.19 0.00 54 1015.4
20260903181500 97 41 0.0 1.0 0.00 0.19 0.00 54 1015.4
20260903181001 98 41 1.0 2.0 0.00 0.19 0.00 53 1015.5
20260903180501 98 37 0.0 2.0 0.00 0.19 0.00 53 1015.5
20260903180001 98 252 0.0 2.0 0.00 0.19 0.00 54 1015.5
20260903175501 98 24 0.0 2.0 0.00 0.19 0.00 52 1015.6
20260903175000 98 37 0.0 2.0 0.00 0.19 0.00 54 1015.6
20260903174726 98 78 0.0 2.0 0.00 0.19 0.00 55 1015.6
20260903174227 97 284 0.0 2.0 0.00 0.19 0.00 56 1015.6
20260903173505 97 0 0.0 3.0 0.00 0.19 0.00 56 1015.7
20260903173002 96 31 0.0 3.0 0.00 0.19 0.00 57 1015.8
20260903172502 97 359 0.0 2.0 0.00 0.19 0.00 58 1015.8
20260903172004 96 38 0.0 2.0 0.00 0.19 0.00 57 1015.8
20260903171504 96 23 0.0 1.0 0.00 0.19 0.00 58 1015.9
20260903171004 95 40 0.0 2.0 0.00 0.19 0.00 59 1016.0
20260903170725 95 282 0.0 2.0 0.00 0.19 0.00 60 1016.1
20260903170004 95 262 0.0 1.0 0.00 0.19 0.00 59 1016.1
20260903165728 95 93 0.0 1.0 0.00 0.19 0.00 58 1016.2
20260903165003 94 34 0.0 1.0 0.00 0.19 0.00 60 1016.4
20260903164725 94 34 0.0 2.0 0.00 0.19 0.00 60 1016.3
20260903164002 94 43 0.0 3.0 0.00 0.19 0.00 60 1016.3
20260903163503 94 248 0.0 3.0 0.00 0.19 0.00 60 1016.4
20260903163003 93 223 0.0 2.0 0.00 0.19 0.00 62 1016.3
20260903162504 93 304 0.0 3.0 0.00 0.19 0.00 62 1016.4
20260903162003 93 347 0.0 3.0 0.00 0.19 0.00 62 1016.4
20260903161503 93 179 0.0 2.0 0.00 0.19 0.00 63 1016.5
20260903161004 93 253 0.0 2.0 0.00 0.19 0.00 63 1016.6
20260903160505 93 242 0.0 1.0 0.00 0.19 0.00 65 1016.6
20260903160003 92 53 0.0 3.0 0.00 0.19 0.00 66 1016.6
20260903155503 92 104 0.0 3.0 0.00 0.19 0.00 64 1016.7
20260903155002 92 240 0.0 2.0 0.00 0.19 0.00 65 1016.7
20260903154503 92 86 0.0 1.0 0.00 0.19 0.00 66 1016.8
20260903154002 92 44 0.0 1.0 0.00 0.19 0.00 68 1016.8
20260903153501 91 64 0.0 1.0 0.00 0.19 0.00 67 1016.8
20260903153000 91 91 0.0 2.0 0.00 0.19 0.00 67 1016.8
20260903152944 91 101 0.0 2.0 0.00 0.19 0.00 71 1016.8
20260903152001 90 320 0.0 0.0 0.00 0.19 0.00 70 1016.8
20260903151721 90 320 0.0 0.0 0.00 0.19 0.00 72 1016.8
20260903151227 90 353 0.0 0.0 0.00 0.19 0.00 73 1016.9
20260903150501 90 353 0.0 0.0 0.00 0.19 0.00 73 1017.0
20260903150000 90 354 0.0 1.0 0.00 0.19 0.00 73 1017.0
20260903145500 89 313 0.0 1.0 0.00 0.19 0.00 74 1017.0
20260903145003 90 164 0.0 0.0 0.00 0.19 0.00 75 1017.0
20260903144501 90 164 0.0 0.0 0.00 0.19 0.00 76 1016.9
20260903144000 90 162 0.0 1.0 0.00 0.19 0.00 74 1016.9
20260903143501 89 350 0.0 1.0 0.00 0.19 0.00 75 1016.9
20260903143001 89 350 0.0 1.0 0.00 0.19 0.00 76 1016.9
20260903142720 89 315 0.0 0.0 0.00 0.19 0.00 76 1016.8
20260903142001 89 304 0.0 0.0 0.00 0.19 0.00 77 1016.7
20260903141502 89 294 0.0 0.0 0.00 0.19 0.00 77 1016.7
20260903141001 89 355 0.0 0.0 0.00 0.19 0.00 79 1016.7
20260903140501 88 355 0.0 0.0 0.00 0.19 0.00 80 1016.8
20260903140001 87 356 0.0 1.0 0.00 0.19 0.00 81 1016.8
20260903135727 86 356 0.0 1.0 0.00 0.19 0.00 84 1016.8
20260903135001 86 344 0.0 0.0 0.00 0.19 0.00 84 1016.9
20260903134501 85 345 0.0 2.0 0.00 0.19 0.00 88 1016.9
20260903134001 84 345 0.0 2.0 0.00 0.19 0.00 89 1016.8
20260903133941 84 345 0.0 0.0 0.00 0.19 0.00 90 1016.8
20260903133001 83 345 0.0 0.0 0.00 0.19 0.00 92 1016.7
20260903132500 82 346 0.0 0.0 0.00 0.19 0.00 93 1016.7
20260903132001 81 345 0.0 0.0 0.00 0.19 0.00 95 1016.7
20260903131503 81 324 0.0 0.0 0.00 0.19 0.00 95 1016.8
20260903131001 80 324 0.0 1.0 0.00 0.19 0.00 96 1016.8
20260903130500 80 324 0.0 1.0 0.00 0.19 0.00 97 1016.8
20260903130440 80 244 0.0 0.0 0.00 0.19 0.00 98 1016.9
20260903125723 79 244 0.0 0.0 0.00 0.19 0.00 98 1016.9
20260903125001 78 244 0.0 0.0 0.00 0.19 0.00 98 1016.9
20260903124502 78 244 0.0 0.0 0.00 0.19 0.00 98 1016.9
20260903124000 78 244 0.0 0.0 0.00 0.19 0.00 98 1016.9
20260903123718 77 244 0.0 0.0 0.00 0.19 0.00 99 1017.0
20260903123001 76 244 0.0 0.0 0.00 0.19 0.00 99 1016.9
20260903122500 76 244 0.0 0.0 0.00 0.19 0.00 99 1016.9
20260903122001 75 233 0.0 0.0 0.00 0.19 0.00 99 1016.9
20260903121500 75 234 0.0 0.0 0.00 0.19 0.00 99 1016.9
20260903121000 74 234 0.0 0.0 0.00 0.19 0.00 98 1016.8
20260903120501 74 236 0.0 0.0 0.00 0.19 0.00 98 1016.9
20260903120001 74 237 0.0 0.0 0.00 0.19 0.00 98 1016.9
20260903115949 74 237 0.0 0.0 0.00 0.19 0.00 98 1016.9